Temp
11 11 11 11 11 11 11 11 11 11 11 10 10 10 10 10 10 10 10 10 10 10 10 10 10 10 10 10 10 10 10 10 9 9 9 9 8 8 8 8 8 8 8 7 7 7 6 6 6 5 5 5 5 5 5 5 5 4 4 4 4 4 4 3 3 3 3 3 2
12 11 11 11 11 11 11 11 11 11 11 10 10 10 10 10 10 10 10 10 10 10 10 10 10 10 10 10 10 10 10 9 9 9 9 8 8 8 8 8 8 8 7 7 7 7 6 6 6 6 5 5 5 5 5 5 4 4 4 4 4 4 3 3 3 3 3 2 2
12 12 12 11 11 11 11 11 11 11 11 11 10 10 10 10 10 10 10 10 10 10 10 10 10 10 10 10 10 10 10 9 9 9 9 8 8 8 8 8 8 8 7 7 7 6 6 6 6 6 6 5 5 5 5 4 4 4 4 4 4 3 3 3 3 2 2 2 2
12 12 12 12 11 11 11 11 11 11 11 11 10 10 10 10 10 10 10 10 10 10 10 10 10 10 10 10 10 10 9 9 9 9 8 8 8 8 8 8 8 7 7 7 7 6 6 6 6 6 6 5 5 5 5 4 4 4 4 4 3 3 3 3 2 2 2 2 2
13 12 12 12 12 12 12 12 11 11 11 11 10 10 10 10 10 10 10 10 10 10 10 10 10 10 10 10 10 9 9 9 9 8 8 8 8 8 8 8 7 7 7 7 7 6 6 6 6 6 5 5 5 5 4 4 4 4 3 3 3 3 2 2 2 2 2 1 1
13 13 13 12 12 12 12 12 11 11 11 11 10 10 10 10 10 10 10 10 10 10 10 10 10 10 9 9 9 9 9 9 8 8 8 8 8 8 8 7 7 7 7 7 7 6 6 6 6 6 5 5 5 4 4 4 4 3 3 3 3 3 2 2 2 2 1 1 1
13 13 13 13 12 12 12 12 11 11 11 10 10 10 10 10 10 10 10 10 10 10 10 10 9 9 9 9 9 9 9 9 8 8 8 8 8 8 7 7 7 7 7 7 7 6 6 6 6 5 5 5 4 4 4 4 3 3 3 3 3 2 2 2 2 1 1 1 1
13 13 13 13 12 12 12 12 11 11 11 10 10 10 10 10 10 10 10 10 10 10 10 10 9 9 9 9 9 9 9 8 8 8 8 8 8 8 7 7 7 7 7 7 7 6 6 6 5 5 5 4 4 4 4 3 3 3 3 3 2 2 2 2 1 1 1 1 1
13 12 12 12 12 12 12 11 11 11 11 10 10 10 10 10 10 10 10 10 10 10 10 9 10 10 9 9 9 9 9 8 8 8 8 8 8 7 7 7 7 7 7 7 7 6 6 5 5 5 4 4 4 4 3 3 3 3 3 2 2 2 1 1 1 1 1 0 0
13 13 12 12 12 12 12 11 11 11 11 10 10 10 10 10 10 10 9 9 9 9 9 9 9 9 9 9 9 9 8 8 8 8 8 8 7 7 7 7 7 7 7 7 6 6 6 5 5 4 4 4 4 3 3 3 3 2 2 2 2 1 1 1 1 1 0 0 -0
13 13 13 12 12 12 12 11 11 10 10 10 10 10 10 10 9 9 9 9 9 9 9 9 9 9 9 9 9 8 8 8 8 8 8 8 7 7 7 7 7 7 7 7 6 6 5 5 4 4 4 4 4 3 3 3 2 2 2 2 1 1 1 1 1 0 0 -0 -0
13 13 13 13 12 12 11 11 11 10 10 10 10 10 9 9 9 9 9 9 9 9 9 9 9 9 9 9 8 8 8 8 8 8 8 7 7 7 7 7 7 7 7 7 6 5 5 4 4 4 4 4 3 3 3 2 2 2 1 1 1 1 1 0 0 0 -0 -0 -0
13 13 13 13 12 12 11 11 10 10 10 10 10 9 9 9 9 9 9 9 9 9 9 9 9 9 9 8 8 8 8 8 8 8 7 7 7 7 7 7 7 7 7 6 6 5 5 4 4 4 4 3 3 3 2 2 2 1 1 1 1 0 0 0 0 -0 -0 -0 -1
13 13 13 12 12 11 11 11 10 10 10 9 9 9 9 9 9 9 9 9 9 9 9 9 8 8 8 8 8 8 8 8 8 7 7 7 7 7 7 7 7 7 6 6 5 5 4 4 4 4 3 3 3 2 2 2 1 1 1 1 0 0 0 -0 -0 -0 -0 -1 -1
13 13 12 12 12 11 11 10 10 10 9 9 9 9 9 9 8 8 8 8 8 8 9 8 8 8 8 8 8 8 8 8 7 7 7 7 7 7 7 7 7 6 6 6 5 5 4 4 4 3 3 3 2 2 2 1 1 1 1 0 0 0 -0 -0 -0 -0 -1 -1 -1
12 12 12 12 11 11 11 10 10 9 9 9 9 9 8 8 8 8 8 8 8 8 8 8 8 8 8 8 8 8 8 7 7 7 7 7 7 7 7 7 6 6 6 5 5 5 4 4 3 3 3 2 2 2 1 1 1 1 0 0 0 -0 -0 -0 -0 -1 -1 -1 -1
11 11 11 11 11 11 10 10 9 9 9 9 8 8 8 8 8 8 8 8 8 8 8 8 8 8 8 8 8 7 7 7 7 7 7 7 7 7 7 6 6 6 5 5 5 4 4 4 3 3 2 2 2 1 1 1 1 1 0 0 -0 -0 -0 -0 -1 -1 -1 -1 -1
11 11 11 11 11 10 10 10 9 9 9 8 8 8 8 8 8 8 8 8 8 8 8 8 8 8 8 8 7 7 7 7 7 7 7 7 7 7 6 6 6 5 5 4 4 4 4 3 3 2 2 2 1 1 1 1 1 0 0 0 -0 -0 -0 -1 -1 -1 -1 -1 -1
11 10 10 10 10 10 10 10 9 9 8 8 8 8 8 8 8 8 8 8 8 8 8 8 8 7 7 7 7 7 7 7 7 7 7 7 6 6 6 5 5 5 4 4 4 3 3 3 2 2 2 2 1 1 1 1 0 0 0 -0 -0 -0 -0 -1 -1 -1 -1 -1 -1
10 10 10 10 10 10 9 9 9 8 8 8 8 8 8 8 8 8 8 8 8 8 8 7 7 7 7 7 7 7 7 7 6 6 6 6 6 5 5 5 5 4 4 4 3 3 3 3 2 2 2 1 1 1 1 1 0 0 -0 -0 -0 -0 -1 -1 -1 -1 -1 -1 -1
10 10 9 9 9 9 9 9 9 8 8 8 8 8 8 8 8 8 8 8 8 7 7 7 7 7 7 7 7 7 6 6 6 6 6 6 5 5 5 4 4 4 3 3 3 3 3 2 2 2 2 1 1 1 1 0 0 -0 -0 -0 -1 -1 -1 -1 -1 -1 -1 -1 -1
9 9 9 9 9 9 9 8 8 8 7 7 7 7 7 7 7 7 7 7 7 7 7 7 7 7 7 7 7 6 6 6 6 6 5 5 5 5 4 4 4 3 3 3 3 3 2 2 2 2 1 1 1 1 0 0 -0 -0 -0 -1 -1 -1 -1 -1 -1 -1 -1 -1 -1
9 9 8 8 8 8 8 8 8 7 7 7 7 7 7 7 7 7 7 7 7 7 7 7 6 6 6 6 6 6 6 6 6 5 5 5 4 4 4 4 3 3 3 3 3 2 2 2 2 1 1 1 1 0 0 -0 -0 -0 -1 -1 -1 -1 -1 -1 -1 -1 -1 -1 -2
9 8 8 8 8 8 7 7 7 7 7 7 7 7 7 7 7 7 7 7 7 6 6 6 6 6 6 6 6 6 6 5 5 5 4 4 4 4 4 4 3 3 3 3 2 2 2 1 1 1 1 0 0 -0 -0 -0 -0 -1 -1 -1 -1 -1 -1 -1 -1 -1 -2 -2 -2
8 8 8 7 7 7 7 7 7 7 7 7 6 6 6 6 6 6 6 6 6 6 6 6 6 6 6 6 5 5 5 5 5 4 4 4 4 4 4 3 3 3 3 2 2 2 1 1 0 0 -0 -0 -0 -0 -0 -0 -0 -1 -1 -1 -1 -1 -1 -1 -1 -2 -2 -2 -2
8 8 7 7 7 7 7 7 7 6 6 6 6 6 6 6 6 6 6 6 6 6 6 6 5 5 5 5 5 5 5 4 4 4 4 4 4 3 3 3 3 3 2 2 2 1 1 0 0 -0 -0 -0 -0 -0 -0 -0 -0 -1 -1 -1 -1 -1 -1 -2 -2 -2 -2 -2 -2
8 7 7 7 7 7 6 6 6 6 6 6 6 6 6 6 6 6 6 6 6 6 5 5 5 5 5 5 5 5 4 4 4 4 4 4 3 3 3 3 2 2 2 2 1 1 1 0 -0 -0 -0 -0 -0 -0 -0 -0 -1 -1 -1 -1 -1 -1 -2 -2 -2 -2 -2 -2 -2
8 7 7 7 6 6 6 6 6 6 6 6 6 6 6 6 6 6 6 6 5 5 5 5 5 5 5 5 5 4 4 4 4 4 3 3 3 3 3 2 2 2 2 1 1 1 0 -0 -0 -0 -0 -0 -0 -0 -0 -1 -1 -1 -1 -1 -2 -2 -2 -2 -2 -2 -2 -2 -2
7 7 7 6 6 6 6 6 5 5 5 5 5 5 5 5 5 5 5 5 5 5 5 5 5 5 5 5 4 4 4 4 4 3 3 3 3 2 2 2 2 1 1 1 1 0 -0 -0 -1 -1 -1 -1 -1 -1 -1 -1 -1 -1 -2 -2 -2 -2 -2 -2 -2 -2 -3 -3 -3
7 6 6 6 6 6 5 5 5 5 5 5 5 5 5 5 5 5 5 5 5 5 5 5 5 5 4 4 4 4 4 4 3 3 3 2 2 2 1 1 1 1 1 1 0 -0 -0 -1 -1 -1 -1 -1 -1 -1 -1 -1 -1 -2 -2 -2 -2 -2 -2 -3 -3 -3 -3 -3 -3
6 6 6 6 5 5 5 5 5 5 5 5 5 4 5 5 5 5 5 5 5 5 5 5 4 4 4 4 4 4 4 3 3 3 2 2 2 1 1 1 1 1 1 1 0 -0 -1 -1 -1 -1 -1 -1 -1 -1 -1 -2 -2 -2 -2 -2 -2 -3 -3 -3 -3 -3 -3 -3 -3
6 6 5 5 5 5 5 5 4 4 4 4 4 4 4 4 5 5 5 5 5 4 4 4 4 4 4 4 4 3 3 3 3 2 2 1 1 1 1 1 1 1 0 0 -0 -1 -1 -1 -1 -2 -2 -1 -2 -2 -2 -2 -2 -2 -2 -3 -3 -3 -3 -3 -3 -3 -3 -3 -4
6 5 5 5 5 5 4 4 4 4 4 4 4 4 4 4 4 4 4 4 4 4 4 4 4 4 4 4 3 3 3 2 2 2 1 1 1 0 0 0 0 0 0 -0 -1 -1 -1 -2 -2 -2 -2 -2 -2 -2 -2 -2 -3 -3 -3 -3 -3 -3 -3 -3 -4 -4 -4 -4 -4
5 5 5 5 4 4 4 4 4 3 3 3 4 4 4 4 4 4 4 4 4 4 4 4 4 4 4 3 3 3 2 2 2 1 1 1 0 0 0 0 0 0 -0 -1 -1 -2 -2 -2 -2 -2 -2 -2 -2 -2 -3 -3 -3 -3 -3 -3 -3 -3 -3 -4 -4 -4 -4 -4 -4
5 5 4 4 4 4 3 3 3 3 3 3 3 3 4 4 4 4 4 4 4 3 3 3 3 3 3 3 2 2 2 1 1 1 0 0 -0 -0 -0 -0 -0 -0 -1 -1 -2 -2 -2 -2 -3 -3 -3 -3 -3 -3 -3 -3 -3 -3 -3 -4 -4 -4 -4 -4 -4 -4 -4 -4 -4
5 5 4 4 4 3 3 3 3 3 3 3 3 3 3 3 3 4 4 3 3 3 3 3 3 3 2 2 2 1 1 1 1 0 0 -0 -0 -1 -1 -1 -1 -1 -1 -1 -2 -2 -3 -3 -3 -3 -3 -3 -3 -3 -3 -3 -4 -4 -4 -4 -4 -4 -4 -4 -4 -4 -4 -4 -3
5 4 4 4 3 3 3 3 3 2 2 3 3 3 3 3 3 3 3 3 3 3 3 3 2 2 2 2 1 1 1 0 0 -0 -0 -0 -1 -1 -1 -1 -1 -1 -1 -1 -2 -2 -3 -3 -3 -3 -3 -3 -3 -3 -3 -4 -4 -4 -4 -4 -4 -4 -4 -4 -4 -3 -3 -3 -3
5 4 4 4 3 3 3 3 2 2 2 3 3 3 3 3 3 3 3 3 3 3 3 2 2 2 2 1 1 1 0 -0 -0 -0 -1 -1 -1 -1 -1 -1 -1 -1 -1 -2 -2 -3 -3 -3 -3 -3 -3 -3 -3 -4 -4 -4 -4 -4 -4 -4 -4 -4 -3 -3 -3 -3 -3 -3 -3
4 4 4 4 3 3 3 3 2 2 3 3 3 3 3 3 3 3 3 3 3 2 2 2 2 1 1 1 0 0 -0 -0 -1 -1 -1 -1 -1 -2 -2 -2 -2 -2 -2 -2 -3 -3 -3 -4 -4 -4 -4 -4 -4 -4 -4 -4 -4 -4 -4 -4 -3 -3 -3 -3 -3 -3 -3 -3 -3
4 4 4 3 3 3 3 3 3 3 3 2 2 2 2 2 2 2 2 2 2 2 1 1 1 1 0 0 -0 -0 -1 -1 -1 -1 -1 -2 -2 -2 -2 -3 -3 -3 -2 -3 -3 -3 -3 -4 -4 -4 -4 -4 -4 -4 -4 -4 -4 -4 -3 -3 -3 -3 -3 -3 -3 -3 -3 -3 -3
4 4 3 3 3 3 3 3 3 2 2 2 2 2 2 2 2 2 2 2 1 1 1 0 0 0 -0 -0 -1 -1 -1 -1 -1 -1 -2 -2 -2 -2 -3 -3 -3 -3 -3 -3 -3 -3 -3 -4 -4 -4 -4 -4 -4 -4 -4 -3 -3 -3 -3 -3 -3 -3 -3 -3 -3 -3 -3 -3 -3
Height
806 806 807 807 808 808 808 808 808 809 809 810 810 811 811 812 812 813 813 814 814 815 815 816 816 817 818 819 821 822 823 824 825 826 827 828 829 830 830 831 831 831 831 832 832 832 832 832 832 832 832 832 831 831 831 831 831 831 830 830 829 829 829 828 827 827 827 826 826
803 804 805 805 806 806 806 806 806 807 807 807 808 809 810 810 811 811 811 812 812 813 813 814 815 815 816 817 819 821 822 823 824 825 826 826 827 828 828 829 829 830 830 830 830 830 830 831 831 830 830 830 830 830 829 829 829 829 828 828 827 827 827 826 826 825 825 825 824
801 801 802 803 804 804 804 804 804 804 805 805 806 807 808 808 809 809 810 810 811 811 812 812 813 814 815 816 818 819 820 821 822 823 824 825 825 826 826 827 827 828 828 828 828 829 829 829 829 829 829 828 828 828 827 827 827 827 826 826 826 826 825 825 824 824 823 823 822
799 800 800 801 801 801 801 801 802 802 803 804 805 806 806 806 807 807 808 808 809 810 810 811 812 813 814 815 816 817 818 819 821 821 822 823 824 824 825 825 826 826 826 827 827 827 827 827 827 827 827 826 826 826 826 826 826 825 825 824 824 824 823 823 822 822 821 821 821
797 797 798 798 799 799 799 800 800 801 801 802 803 804 804 805 805 806 806 807 807 808 809 810 811 811 812 813 815 816 817 818 819 819 820 821 822 822 823 824 824 824 825 825 825 826 826 826 825 825 825 825 824 824 824 824 824 823 823 823 822 822 821 821 821 820 820 819 819
795 795 796 796 797 797 798 798 799 799 800 801 801 802 802 802 803 804 804 804 805 806 807 809 809 810 811 812 813 814 815 816 817 817 818 819 820 821 821 822 822 823 823 823 824 824 824 824 823 823 823 823 822 822 822 822 822 821 821 821 820 820 820 819 819 818 818 817 817
793 793 794 794 795 796 796 796 797 798 799 799 800 800 800 800 801 801 802 803 804 805 806 807 808 808 809 810 811 812 813 814 815 816 816 817 818 819 820 820 821 821 821 822 822 822 822 822 821 821 821 821 821 820 820 820 820 820 819 818 818 818 818 817 817 816 816 816 815
791 791 792 793 793 794 794 795 796 796 797 797 797 797 797 798 799 800 801 801 802 803 804 805 806 806 807 808 809 810 811 812 813 814 815 816 816 817 818 818 819 819 820 820 820 820 820 820 820 819 819 819 819 818 818 818 818 818 817 816 816 816 816 816 815 815 814 814 813
789 790 790 791 791 792 793 793 794 795 795 795 795 795 796 796 797 798 799 799 800 801 802 803 804 804 805 806 807 808 809 810 811 812 813 814 815 815 816 817 817 817 818 818 818 818 818 818 817 817 817 817 816 816 816 816 816 816 815 815 814 814 814 813 813 813 812 812 811
787 787 788 789 790 790 791 791 792 792 793 793 793 793 794 795 796 796 797 797 798 800 800 801 802 803 803 804 805 806 807 808 809 810 811 812 813 814 814 815 815 816 816 816 816 816 816 816 816 815 815 815 815 815 815 815 815 814 813 813 812 812 811 811 811 811 811 810 809
785 786 786 787 787 788 789 790 790 790 791 791 791 791 792 793 793 794 795 796 797 798 798 799 800 801 801 802 803 804 805 806 807 808 809 810 811 812 812 813 813 814 814 814 814 814 814 814 813 813 813 813 813 813 813 813 812 812 811 811 811 810 809 809 809 809 809 808 807
783 784 785 785 786 786 787 787 788 788 788 789 789 789 790 791 791 792 794 795 795 796 796 797 798 799 800 801 802 803 804 805 806 807 808 808 809 810 811 811 811 811 812 812 812 812 812 811 811 811 811 811 811 811 811 811 811 810 809 809 808 808 807 807 807 807 806 806 806
782 782 783 783 784 785 785 785 785 786 786 786 787 787 788 789 790 791 792 793 793 794 795 796 797 798 798 799 801 801 802 803 804 805 806 806 807 808 808 809 809 810 810 810 810 810 810 810 810 809 809 809 809 809 809 809 808 808 807 807 806 806 805 805 805 805 805 804 804
780 781 781 781 782 782 783 783 783 783 784 784 785 786 786 787 789 790 790 791 792 793 794 795 796 796 797 798 799 800 801 802 803 803 804 805 805 806 806 807 807 807 807 808 808 808 808 808 807 807 807 807 807 807 807 807 806 806 805 805 804 804 803 803 803 803 803 802 801
778 778 779 779 780 780 780 781 781 781 781 782 783 784 785 786 787 788 789 790 791 791 792 794 794 795 796 797 798 799 800 801 801 802 802 803 803 804 805 805 805 805 805 806 806 806 806 806 806 806 805 805 805 805 805 805 804 804 803 803 802 802 801 801 801 801 801 800 799
775 776 776 777 777 777 778 778 778 779 779 780 781 782 783 784 785 786 787 788 789 790 791 792 793 794 795 796 797 798 799 799 800 800 801 801 801 802 802 803 803 803 803 803 803 804 804 804 804 804 803 803 803 802 802 802 802 801 801 801 800 800 799 799 799 798 798 797 797
773 773 774 775 775 775 775 776 776 777 777 778 779 780 781 783 784 785 786 786 788 789 790 791 791 793 794 795 796 796 797 797 798 798 799 799 800 801 801 801 801 801 801 801 801 801 801 801 801 801 801 801 801 800 800 800 800 799 799 798 798 797 797 796 796 796 795 795 794
770 771 771 772 772 772 773 773 774 775 776 776 777 778 780 781 782 783 784 785 786 787 788 789 790 791 792 793 794 795 796 796 796 797 797 798 799 799 799 799 800 800 800 800 800 800 800 800 800 800 799 799 799 798 798 797 797 797 796 796 795 795 794 794 794 793 793 792 791
767 768 769 769 769 770 771 771 772 773 774 775 776 777 778 779 780 781 782 783 784 785 786 787 788 789 790 791 792 793 794 795 795 796 796 797 797 797 798 798 798 798 798 798 798 798 798 798 798 797 797 797 796 796 796 795 795 794 794 793 793 792 792 791 791 791 791 790 789
765 765 766 766 767 768 769 770 771 772 773 773 774 776 776 777 779 780 781 781 782 783 785 786 787 788 789 790 791 791 792 793 794 795 795 796 796 796 796 796 797 797 797 796 796 796 796 796 796 796 795 795 795 794 794 793 793 792 791 791 791 790 789 789 789 788 788 787 786
762 763 764 765 766 766 767 768 770 771 771 772 773 774 775 776 777 778 779 780 781 782 783 784 785 786 787 788 789 790 791 792 793 793 794 794 795 795 795 795 795 795 795 795 795 794 794 794 794 794 793 793 792 792 791 791 791 790 789 789 788 787 787 787 786 786 786 785 784
760 761 762 763 764 765 766 767 768 769 770 770 771 772 773 774 775 776 777 778 780 781 781 782 783 784 786 786 788 789 790 791 791 792 792 793 793 793 794 794 794 794 793 793 793 793 792 792 792 792 791 791 791 790 790 789 788 787 787 786 786 785 785 784 784 784 783 782 782
759 760 761 762 763 764 765 766 767 767 768 769 770 771 771 772 774 775 776 777 778 779 780 781 782 783 784 786 786 787 788 789 790 790 791 791 791 792 792 792 792 792 792 791 791 791 791 791 790 790 790 789 788 788 787 787 786 786 785 784 783 783 782 782 781 781 781 780 779
758 759 760 761 761 762 763 764 765 766 766 767 768 769 770 771 772 773 774 775 776 777 778 779 781 782 783 784 785 786 787 787 788 789 789 790 790 790 790 791 791 790 790 790 790 790 789 789 788 788 787 787 786 786 785 785 784 784 783 782 781 781 780 780 779 779 778 778 777
757 758 758 759 760 761 761 762 763 763 764 765 766 767 768 770 771 772 773 774 775 776 777 778 780 781 782 783 784 785 785 786 786 787 788 788 788 789 789 789 789 789 789 789 788 788 788 788 787 786 786 786 785 785 784 783 783 782 781 781 780 779 778 777 777 777 776 776 775
755 756 757 757 758 759 760 760 761 761 762 763 765 766 767 768 769 770 771 772 773 775 776 777 778 780 781 781 782 783 784 784 785 786 786 786 787 787 787 787 787 787 787 787 787 787 787 786 786 786 785 785 784 783 782 782 781 781 780 779 778 777 776 775 774 774 773 773 772
753 754 755 756 756 757 757 758 759 760 761 762 763 764 765 767 768 769 770 771 772 773 775 776 777 778 779 780 781 781 782 783 784 784 785 785 786 786 786 786 786 786 786 786 786 785 785 785 785 784 784 783 782 781 781 780 779 778 778 777 776 775 774 773 772 771 771 771 770
751 752 753 754 755 755 755 756 757 758 759 760 761 763 764 766 767 768 769 770 771 772 773 775 776 777 778 779 779 780 781 782 782 783 783 784 784 784 784 784 784 784 784 784 784 784 783 783 783 782 782 782 781 780 779 778 777 776 775 775 774 773 772 771 771 770 769 768 767
749 750 751 752 752 753 754 755 755 756 757 759 760 762 763 764 765 766 767 769 770 771 772 773 774 776 776 777 777 778 779 780 781 781 782 782 782 782 782 782 782 783 783 783 782 782 781 781 781 781 780 780 779 778 777 776 775 774 773 772 771 771 770 770 769 768 767 766 765
748 749 749 750 751 751 752 753 754 755 756 758 759 761 762 763 764 765 766 767 768 769 771 772 773 774 775 775 776 777 778 779 779 780 780 781 781 781 781 781 781 781 781 781 781 780 780 779 779 778 778 778 777 776 775 774 773 772 771 770 769 769 768 768 767 766 765 765 763
746 747 748 749 749 750 751 751 753 754 756 757 758 759 760 761 762 764 765 766 767 769 770 771 772 773 773 774 775 776 776 777 778 778 779 779 779 779 779 780 779 779 779 779 779 778 778 777 777 776 776 776 775 774 773 772 771 770 769 768 767 767 766 766 765 764 763 763 762
745 746 747 747 748 749 749 751 752 753 755 756 757 758 759 760 761 762 764 765 766 768 769 770 771 771 772 773 774 774 775 776 776 777 777 777 778 778 778 778 777 777 777 777 777 776 776 776 775 775 774 774 773 772 771 770 769 768 767 766 766 765 764 764 763 762 761 761 760
744 745 746 746 747 748 749 750 751 752 754 755 756 757 758 759 761 762 763 765 766 767 767 768 769 770 771 771 772 773 774 774 775 775 776 776 776 776 776 776 776 776 776 775 775 775 774 774 773 773 772 771 771 770 769 768 766 766 765 764 763 763 762 762 761 760 760 759 758
743 744 745 745 746 747 748 750 751 752 753 754 755 756 757 758 760 761 762 763 764 766 766 767 768 769 770 770 771 772 772 773 774 774 774 775 775 775 774 774 774 774 774 774 773 773 772 772 771 771 770 770 769 767 766 766 765 764 763 762 761 761 760 760 759 758 757 756 756
742 743 744 745 746 747 748 749 750 751 752 753 754 755 756 757 759 760 761 762 763 764 765 766 767 768 768 769 770 771 771 771 772 772 773 773 773 773 772 772 772 772 772 772 771 771 770 770 769 769 768 767 766 766 765 764 762 761 761 760 759 758 758 757 757 756 755 754 753
741 742 743 744 745 746 747 748 749 750 751 752 753 754 755 756 757 759 760 761 762 763 764 765 766 766 767 768 768 769 770 770 771 771 771 771 771 771 771 770 770 770 770 770 769 769 768 768 767 767 766 766 765 764 763 762 761 760 759 758 757 756 756 756 755 754 753 752 751
741 741 743 744 745 746 746 747 748 749 750 750 751 752 754 755 756 758 759 760 761 762 762 763 764 765 766 766 767 768 768 769 769 770 770 770 770 769 769 768 768 768 768 768 767 767 766 766 765 765 764 764 762 762 761 760 759 758 757 756 755 754 754 753 752 751 751 750 749
740 741 742 743 744 744 745 746 746 747 748 749 750 751 753 754 755 756 758 759 760 760 761 762 763 764 764 765 766 767 767 767 768 768 768 768 768 767 767 766 766 766 766 766 765 765 764 764 763 763 763 762 761 760 759 758 757 756 755 754 753 752 752 751 751 749 748 747 746
739 740 741 742 742 743 744 745 745 746 747 748 750 751 752 753 754 756 756 757 758 759 760 761 762 763 764 764 765 765 766 766 766 766 766 766 766 766 766 765 764 763 763 764 763 763 762 762 761 761 761 760 759 758 757 756 755 754 753 752 751 751 750 749 749 747 746 745 744
738 739 740 741 741 742 743 743 744 745 746 748 749 750 751 752 754 755 756 756 757 758 759 760 761 762 763 763 764 764 764 764 764 765 765 764 764 764 764 763 762 761 761 761 761 761 761 760 759 759 759 758 757 757 756 755 754 752 751 751 750 749 748 747 746 745 744 742 741
737 738 739 740 740 741 741 742 744 745 746 747 748 749 751 752 753 754 755 756 757 758 759 760 760 761 761 762 762 762 762 762 763 763 763 763 763 763 762 762 761 760 760 760 760 759 758 758 757 757 757 756 756 755 754 753 752 751 750 749 748 747 746 745 744 743 741 740 739
Wind_Speed
36 36 35 35 34 34 34 35 35 35 35 34 34 33 33 32 32 32 32 31 31 31 31 31 31 31 31 30 29 28 28 27 27 26 25 24 23 21 20 19 17 17 16 17 18 19 19 20 20 21 21 22 23 24 25 25 25 25 25 25 25 25 26 26 27 27 27 27 26
36 36 36 36 35 35 35 35 36 36 36 36 35 34 33 33 33 32 32 32 32 31 31 31 31 31 30 29 28 27 27 27 26 26 25 24 23 21 20 19 18 17 17 18 19 20 20 20 21 22 23 24 24 25 25 25 24 25 25 25 25 26 26 26 27 27 27 27 27
36 36 36 36 35 35 35 35 36 36 36 36 35 34 33 33 33 33 32 32 32 31 31 31 31 30 30 29 28 27 26 26 26 26 25 24 23 21 20 19 18 18 19 19 20 20 21 21 22 23 24 24 25 25 25 25 24 24 25 25 26 26 26 27 27 27 27 27 26
34 35 35 36 36 36 36 36 36 36 36 35 34 34 33 33 33 32 32 32 31 31 30 30 30 30 29 29 28 27 27 26 26 25 25 24 23 22 20 19 19 19 20 20 21 21 22 22 23 23 24 24 25 25 25 24 24 24 25 26 26 27 27 27 28 27 27 26 26
34 34 35 36 36 37 37 37 36 36 35 34 33 32 33 33 32 32 31 31 31 31 31 30 30 30 30 29 28 27 27 26 26 26 25 24 23 22 21 20 20 20 21 21 21 22 22 23 23 23 24 24 24 24 24 24 24 25 26 26 26 27 27 28 28 27 27 26 26
33 33 34 35 35 36 36 37 36 35 34 33 32 32 32 33 32 32 32 32 31 31 30 30 30 30 30 29 28 28 27 26 26 26 26 25 23 22 21 21 21 21 21 22 22 22 22 22 23 23 23 23 24 24 24 24 25 25 26 27 27 27 27 28 28 27 26 26 26
32 32 33 34 34 35 35 36 36 35 34 33 33 33 33 33 33 32 32 32 31 30 30 30 30 30 30 29 29 28 27 27 27 27 26 25 23 22 22 22 22 22 22 22 22 22 22 22 22 23 23 23 23 24 24 24 25 26 27 27 27 27 27 27 27 26 26 26 26
31 31 32 33 33 34 34 34 34 34 34 33 34 34 34 33 33 32 32 32 31 31 30 30 30 30 30 29 28 28 28 28 28 28 27 25 24 23 22 22 22 22 22 21 21 21 21 22 22 22 23 23 23 24 24 25 25 26 27 27 27 27 27 27 27 27 27 27 27
31 31 32 32 32 33 33 33 33 33 33 34 34 35 34 34 33 32 32 32 32 31 30 30 29 29 29 28 28 29 29 29 29 28 27 25 24 24 23 23 22 22 21 21 20 21 21 21 22 22 23 23 24 24 25 25 26 26 27 27 27 27 27 27 27 27 27 27 27
31 31 31 32 32 32 33 33 33 33 33 34 34 34 34 33 33 32 32 32 31 30 30 29 29 28 28 28 29 30 30 30 29 28 27 25 25 24 23 22 22 21 20 20 20 20 21 21 22 22 23 23 24 25 25 25 26 27 27 27 28 28 28 28 27 27 27 27 27
31 31 31 31 31 32 32 32 32 32 33 33 34 33 33 33 33 32 31 31 30 30 30 29 28 28 29 29 30 30 30 29 28 27 26 25 25 24 23 22 21 20 20 20 20 20 21 21 22 23 23 24 24 25 25 25 26 27 27 27 27 28 28 28 27 27 27 27 27
30 30 30 30 30 30 31 31 31 32 32 33 33 33 33 32 32 31 30 30 30 29 29 28 28 29 29 30 31 30 30 29 28 27 26 25 24 23 22 21 20 20 20 20 20 20 21 22 22 23 24 24 24 25 25 25 26 26 27 27 27 28 28 28 28 27 26 26 27
29 29 29 29 29 29 30 30 31 31 32 32 32 32 32 32 31 30 30 30 30 29 28 28 28 29 30 31 31 30 30 29 28 27 26 25 23 22 21 21 20 20 20 20 20 20 21 22 23 23 24 25 25 25 25 25 26 26 27 27 27 28 28 28 28 27 27 26 27
29 29 29 28 28 29 29 30 31 31 31 32 32 32 31 31 30 30 29 29 29 29 29 29 29 30 30 30 30 30 29 28 28 27 25 24 23 22 21 21 20 20 20 20 20 21 21 22 23 24 24 25 25 25 25 25 26 26 27 27 27 28 28 28 27 27 27 27 27
29 29 29 28 28 29 29 30 30 31 31 31 31 31 31 30 30 29 29 29 29 29 29 30 30 30 30 30 30 29 29 28 27 26 25 24 23 22 21 21 21 20 20 20 20 21 21 22 23 23 24 25 25 25 25 25 26 26 26 27 27 28 28 28 28 27 27 28 28
30 30 29 29 29 29 30 30 30 30 31 31 31 31 30 30 30 29 29 30 30 30 30 31 31 31 30 30 29 29 28 28 27 26 25 24 23 22 21 21 21 20 20 20 20 21 21 22 23 23 24 25 25 26 26 26 26 26 27 27 27 28 28 28 28 28 28 28 28
30 31 30 30 30 30 30 30 30 30 31 31 31 30 30 30 30 30 30 31 31 31 31 31 31 31 30 30 30 29 28 28 27 26 25 24 23 22 21 21 20 20 20 20 20 21 21 22 22 23 24 25 25 26 26 26 26 27 27 28 28 28 28 29 28 28 28 29 29
31 31 31 31 31 31 31 31 31 31 31 31 31 30 30 30 30 30 31 31 32 32 32 32 31 31 31 30 30 29 28 27 27 25 24 23 22 21 21 21 20 20 20 20 21 21 22 22 22 23 24 25 25 26 26 26 27 27 28 28 29 29 29 29 29 29 29 29 30
32 32 32 32 32 32 31 31 31 31 31 31 31 30 30 30 30 31 31 32 32 32 32 32 31 31 31 30 30 29 28 27 26 25 24 23 22 21 21 20 20 20 20 21 21 21 22 22 23 23 24 25 26 26 27 27 28 28 28 29 29 29 29 29 29 29 29 29 30
32 32 33 33 32 32 31 31 30 30 30 30 30 30 30 30 30 31 32 32 33 32 32 31 31 31 31 30 29 28 27 26 25 24 23 22 22 21 21 20 20 21 21 21 22 22 22 23 23 24 24 25 26 27 27 28 28 29 29 29 29 29 29 28 28 28 28 29 30
32 32 32 32 32 31 31 30 30 30 30 30 30 30 30 30 31 31 32 32 32 32 32 31 31 31 30 30 29 27 26 25 24 24 23 22 22 21 21 20 21 21 21 22 22 22 23 23 23 24 24 25 26 27 28 28 28 28 28 28 28 28 28 28 28 28 28 29 29
32 31 31 31 31 30 30 29 29 29 30 30 30 30 30 30 31 31 31 32 32 32 32 31 31 30 30 29 27 26 25 24 24 24 23 22 22 21 20 21 21 22 22 22 22 22 23 23 23 24 25 26 27 27 27 27 28 27 27 27 27 27 27 27 28 28 28 29 29
30 30 29 29 29 29 29 29 29 29 30 30 30 30 30 31 31 31 31 31 32 32 32 31 31 30 29 27 26 25 25 24 24 23 23 22 21 21 21 21 22 22 23 23 22 22 22 23 24 24 25 26 26 26 26 26 26 26 26 27 27 27 27 27 27 27 28 28 29
29 28 28 28 28 28 28 28 29 29 30 31 31 31 30 30 30 31 31 32 32 32 32 31 30 29 28 26 25 25 24 24 23 23 22 21 21 21 21 22 22 23 23 22 22 22 22 23 24 24 25 25 25 25 24 24 25 25 26 26 27 27 27 27 27 27 28 28 29
27 27 27 27 28 28 28 28 29 30 31 31 31 31 30 30 31 31 31 32 32 32 31 30 29 28 27 26 25 24 24 23 23 22 22 22 22 22 22 22 22 22 22 22 22 22 22 22 22 22 22 23 23 23 24 24 24 25 25 26 26 27 28 28 28 28 28 29 29
27 27 27 27 28 28 28 29 30 31 31 31 31 31 31 31 31 31 32 32 32 32 31 30 29 28 27 26 25 24 23 23 22 22 22 22 22 22 22 22 22 22 22 22 22 22 22 21 20 20 21 22 23 24 25 25 25 26 26 26 27 27 28 28 29 29 28 28 27
27 27 27 27 28 28 29 30 30 30 30 31 31 31 31 31 31 32 32 33 32 32 31 30 29 27 26 25 24 24 23 22 22 22 22 22 22 22 22 22 21 21 21 22 22 22 22 21 20 20 20 22 23 24 25 26 26 26 26 26 26 26 26 27 28 28 27 27 26
27 27 27 27 28 28 29 30 30 30 31 31 31 31 31 31 31 32 33 33 32 32 31 30 29 27 26 25 24 23 23 22 22 23 23 23 22 22 22 21 21 21 21 22 22 22 22 21 20 20 21 21 23 24 25 26 26 26 25 25 25 25 25 26 26 27 27 26 26
27 27 27 27 28 29 29 30 30 31 31 31 31 30 31 31 32 32 33 33 33 32 31 29 28 27 26 25 24 23 23 23 23 23 23 23 22 22 21 21 21 21 22 22 23 23 22 21 21 21 21 21 22 23 24 25 25 25 25 25 24 24 25 25 26 26 26 26 26
27 27 27 27 28 29 30 30 30 30 30 30 30 30 31 31 32 32 33 33 33 32 31 29 27 26 25 25 24 23 23 23 23 23 22 22 22 21 21 21 21 22 22 23 23 23 22 22 21 21 21 21 21 22 24 24 25 25 25 25 24 24 24 25 26 26 26 26 26
26 26 27 27 28 29 30 30 30 30 30 30 30 30 31 31 32 32 33 33 32 31 29 28 27 26 25 24 24 23 23 23 23 22 22 21 21 21 21 21 22 22 23 23 24 23 23 22 21 21 21 21 21 22 23 24 25 25 25 25 25 24 24 25 25 26 26 26 26
26 26 26 27 28 29 29 29 29 29 29 29 30 30 31 32 32 32 32 31 31 29 28 27 26 25 25 24 24 23 23 23 22 21 21 20 21 21 21 22 22 23 23 24 24 23 22 21 21 21 21 21 21 22 23 24 24 25 25 24 24 24 24 24 24 25 25 26 26
25 26 26 27 28 28 28 28 28 29 29 29 29 30 31 31 31 31 31 30 30 29 28 27 26 25 24 24 24 23 22 22 21 20 20 20 20 21 22 22 23 23 23 23 23 22 22 21 20 20 21 21 21 22 23 24 24 24 24 24 24 24 24 25 25 25 25 26 26
25 26 26 27 27 27 27 27 28 28 28 28 29 30 30 31 31 31 30 30 29 28 27 26 25 24 24 23 23 22 21 20 20 20 20 20 20 21 22 23 23 23 23 23 23 22 21 21 21 21 21 21 21 22 23 23 23 23 23 24 24 24 24 24 25 25 25 26 26
25 25 26 26 26 26 26 26 27 27 28 28 29 30 30 30 31 31 30 29 28 27 26 25 24 24 23 22 21 20 20 20 19 19 19 20 20 21 22 23 23 23 23 23 23 22 22 21 21 20 20 20 21 22 22 23 23 23 23 24 24 24 24 24 24 24 25 25 26
25 25 25 25 25 25 25 26 26 27 28 29 30 30 30 30 30 30 29 28 27 26 25 25 24 23 22 21 20 20 19 19 19 19 20 20 21 22 23 24 24 23 23 23 23 22 22 21 21 20 20 20 21 22 22 22 21 22 22 23 23 23 23 24 24 24 24 24 25
25 25 25 25 25 25 26 26 26 27 28 29 30 30 30 30 30 29 28 27 26 25 25 24 23 22 21 20 20 19 19 19 19 20 20 20 21 22 23 23 24 23 23 22 22 22 21 20 20 19 19 20 21 21 21 21 21 21 21 22 22 22 23 23 23 23 23 24 25
25 24 24 24 25 26 26 26 27 28 29 29 30 30 30 29 29 28 28 27 26 25 24 23 22 21 20 19 19 18 18 19 19 19 20 20 21 21 22 23 24 23 23 22 22 21 20 20 19 19 19 20 21 21 21 20 20 21 21 22 22 22 22 22 22 22 23 23 24
24 24 24 25 26 26 27 27 28 28 29 29 29 29 29 28 28 28 27 26 25 24 22 21 20 19 18 18 18 18 18 19 19 19 20 20 20 21 22 23 24 24 23 22 21 21 20 20 19 19 19 19 20 20 20 20 20 21 21 22 22 22 21 21 21 21 23 24 25
24 24 24 25 26 27 27 28 28 28 28 28 28 28 28 28 27 26 25 24 23 21 20 19 18 17 17 17 17 18 19 19 19 19 19 20 20 20 21 22 23 23 22 22 21 21 20 20 19 19 19 19 20 20 20 20 20 21 21 21 20 21 21 21 21 21 23 24 25
23 23 24 25 26 27 27 27 27 27 27 27 27 28 27 27 26 24 23 21 20 18 17 17 16 16 16 17 18 18 19 19 19 19 19 20 20 20 21 21 22 22 22 21 20 20 19 19 18 18 18 18 19 19 19 19 20 20 20 20 20 20 20 21 21 22 22 24 25
Wind_Direction
238 238 238 239 239 240 241 242 243 244 244 243 242 242 242 242 242 242 243 243 242 243 244 244 244 245 246 244 239 233 229 228 228 230 231 232 233 235 238 241 244 249 253 257 259 261 262 263 265 266 268 270 272 274 275 275 276 277 279 280 281 283 284 284 284 285 285 285 285
240 240 240 240 240 241 242 243 244 245 245 244 244 244 244 243 243 244 244 244 244 245 246 246 245 244 243 241 237 233 230 229 229 230 230 231 233 235 237 241 245 249 253 256 257 259 260 262 264 266 268 271 272 273 274 274 276 277 279 280 282 283 283 283 283 283 284 284 285
242 241 241 240 240 240 241 242 244 245 245 245 245 245 245 245 245 245 245 246 246 246 245 244 243 242 241 239 236 233 232 231 230 230 230 230 232 234 237 241 245 249 252 254 256 258 260 262 265 267 269 271 272 272 273 274 276 277 279 280 282 282 282 281 282 283 283 283 284
243 242 241 240 240 240 241 243 244 246 246 246 246 246 246 246 246 246 247 247 246 245 243 242 241 241 240 238 236 235 234 233 230 229 228 230 231 234 238 241 244 247 250 252 255 258 260 263 265 268 269 270 270 271 272 275 276 278 279 280 281 281 281 281 282 282 283 283 283
243 243 242 242 242 243 244 245 246 246 247 247 246 246 246 246 246 246 246 246 245 244 243 242 241 241 240 238 237 236 234 232 229 227 227 229 231 234 237 240 243 246 249 252 255 258 261 263 265 266 267 268 269 270 273 275 276 278 279 279 280 280 280 281 282 282 282 282 282
244 244 244 244 244 245 245 246 246 247 247 247 246 246 246 246 245 245 244 244 245 246 245 243 241 240 239 239 238 236 233 229 226 225 226 228 230 233 236 239 242 245 249 252 255 258 261 263 264 265 266 267 269 271 273 275 276 277 278 278 279 279 280 281 282 282 282 281 281
246 246 246 246 246 246 246 246 247 247 247 246 246 246 246 246 245 245 245 246 247 246 245 242 240 239 238 238 236 233 229 225 223 223 225 227 229 232 234 238 241 245 249 252 255 258 260 262 263 264 266 267 269 271 273 275 276 277 278 278 279 280 280 281 281 282 281 281 281
248 248 248 248 248 248 247 248 247 246 245 245 245 246 247 247 247 247 247 247 247 246 244 242 241 239 238 236 233 228 224 222 221 222 224 226 228 231 234 238 241 245 249 252 255 258 260 261 262 264 266 268 270 272 274 275 276 277 278 279 280 281 281 281 281 281 281 281 281
247 247 248 249 249 249 249 249 248 247 246 246 247 248 248 248 248 247 247 246 246 246 244 242 241 239 236 232 228 224 221 220 220 222 224 226 228 231 234 238 242 246 250 253 256 258 260 261 263 264 266 269 270 272 274 276 277 277 278 279 280 281 281 281 281 281 281 281 280
246 246 247 248 249 249 250 250 249 248 248 248 249 249 249 249 248 247 246 246 246 245 243 241 239 235 231 226 223 220 219 219 220 222 224 226 228 231 235 239 243 247 251 254 257 258 260 262 263 265 267 269 271 273 274 275 276 277 278 279 279 281 281 282 281 281 281 281 281
246 246 247 247 248 249 249 249 249 249 249 248 249 249 249 248 247 247 246 246 244 242 240 238 234 229 225 221 219 218 219 220 221 222 224 226 229 233 237 241 245 249 252 255 257 259 260 262 264 266 268 270 271 272 273 274 275 276 278 279 280 281 281 282 282 282 281 281 282
245 246 247 248 249 249 249 249 249 248 248 248 248 247 247 246 246 246 245 243 241 239 237 234 229 225 221 219 218 218 219 220 221 223 225 228 231 235 239 242 246 250 253 256 258 259 261 263 265 267 269 270 271 272 274 275 276 278 279 280 281 281 281 282 283 283 283 283 283
245 246 247 247 248 249 249 249 249 248 248 247 246 246 245 245 245 243 241 239 238 236 233 228 225 222 220 218 218 218 219 221 222 224 227 229 233 236 240 244 247 250 253 256 258 260 261 263 266 268 270 271 272 273 275 277 278 279 280 281 281 281 281 282 284 284 285 284 283
246 246 247 247 248 248 248 249 248 248 247 246 245 244 244 243 242 240 238 236 234 232 228 224 222 220 220 220 220 220 221 223 225 226 229 231 234 237 241 245 248 251 253 256 258 260 262 264 266 268 270 272 274 275 277 278 279 279 280 281 281 281 282 283 284 285 285 285 284
248 247 247 247 247 248 248 248 247 246 245 245 244 243 242 241 239 237 235 233 231 229 226 222 220 220 220 221 222 224 225 226 227 229 230 233 235 238 242 245 248 251 253 256 259 261 263 265 267 269 271 273 275 277 279 280 280 281 281 281 281 282 283 284 285 285 285 285 285
248 248 247 247 247 247 247 247 246 244 244 243 243 241 240 238 237 235 232 229 228 226 224 222 221 221 222 223 225 226 227 228 229 230 232 234 236 239 243 246 248 251 254 257 260 262 264 266 268 270 272 274 277 279 280 281 282 282 282 282 283 283 284 284 285 285 285 285 285
248 247 247 246 246 246 246 245 244 243 242 242 241 240 238 236 235 232 230 227 226 224 223 223 224 224 224 225 226 227 228 229 230 231 233 235 238 241 244 247 250 253 256 258 261 263 265 267 269 271 273 275 278 280 281 283 283 283 284 284 284 284 284 285 285 285 285 285 284
247 246 246 245 245 245 245 244 243 242 241 241 240 239 237 235 233 231 229 227 226 225 224 224 225 226 226 227 227 228 229 230 231 233 235 237 240 243 246 249 252 255 258 260 262 264 267 269 271 273 275 277 279 281 282 284 284 285 285 285 285 285 285 285 285 285 285 285 285
246 245 245 244 244 244 244 244 243 242 241 241 240 239 237 235 233 231 229 227 227 226 226 226 226 227 228 228 229 229 230 231 233 235 237 240 243 245 248 251 254 257 259 261 263 266 268 271 273 274 276 279 281 283 284 285 285 285 285 286 286 286 286 286 286 286 285 285 285
246 244 244 243 244 244 244 243 242 241 241 240 239 238 237 235 233 231 229 228 228 228 228 227 227 227 228 228 228 229 230 232 235 237 240 242 244 247 250 253 256 259 261 263 265 267 269 271 274 276 278 281 283 284 285 286 286 286 286 286 286 286 286 287 287 287 286 286 285
245 244 244 244 244 244 244 243 242 241 240 239 238 237 236 235 233 232 231 230 230 229 228 228 227 227 227 227 227 229 231 233 236 239 241 244 246 249 252 255 258 261 263 264 266 268 270 272 275 278 281 283 284 285 286 287 287 287 288 288 288 288 288 288 288 288 287 286 286
246 245 245 245 245 244 244 244 242 240 239 238 237 236 235 234 233 232 232 231 230 228 227 227 227 227 227 227 228 229 232 234 237 240 242 244 247 250 254 257 259 261 263 264 266 268 272 275 278 280 283 284 285 286 287 288 288 289 289 289 289 290 290 290 289 288 288 287 287
246 245 245 245 245 244 244 243 241 239 237 236 236 235 234 233 232 232 230 229 227 227 226 227 227 227 227 228 229 231 233 236 238 240 243 245 249 252 254 257 259 261 263 265 267 271 275 278 281 283 285 286 287 288 289 289 290 290 290 290 291 291 291 290 290 289 288 288 287
246 245 244 244 244 243 242 241 239 237 236 235 234 233 232 231 230 229 227 226 225 225 225 225 226 226 226 228 230 232 234 236 239 241 244 246 249 252 254 256 258 260 263 266 270 274 278 281 284 286 288 289 289 290 290 290 290 290 290 290 291 290 290 290 289 288 288 288 287
245 245 244 243 243 241 240 238 237 235 234 234 233 232 230 229 228 226 225 224 223 223 224 224 224 225 226 228 230 233 235 238 240 243 245 248 250 252 254 256 258 261 265 269 273 277 280 283 284 286 287 288 288 288 288 288 288 288 288 288 289 289 289 289 289 288 288 288 287
245 244 243 242 241 240 238 237 236 235 234 233 231 230 228 227 226 224 223 222 222 222 223 223 224 225 227 229 231 234 236 239 241 244 247 249 251 253 254 257 260 264 268 273 277 280 283 284 283 282 283 284 284 285 285 286 286 287 287 288 288 289 289 290 290 290 290 289 288
244 243 242 241 239 238 237 236 235 234 233 231 230 228 227 226 224 223 222 222 222 222 223 223 224 226 228 230 232 235 237 240 243 246 248 250 252 254 256 259 263 268 272 277 281 284 285 285 284 282 282 283 284 285 286 286 287 288 288 288 289 289 289 290 291 291 291 290 288
242 241 240 239 237 236 236 235 234 232 231 230 228 227 226 224 223 223 222 222 223 223 223 224 225 227 229 231 233 236 239 242 244 246 249 251 253 256 260 264 268 272 277 281 284 286 286 286 285 284 284 284 285 286 286 287 288 289 289 289 289 289 289 289 289 290 290 289 289
241 240 238 236 235 235 234 233 232 231 230 229 227 226 225 223 223 223 222 222 223 223 223 225 226 228 230 232 234 237 240 242 244 246 249 251 254 258 262 267 272 276 280 283 285 286 286 286 285 285 285 286 286 286 286 287 288 288 289 289 288 288 288 288 288 288 288 288 289
239 237 235 234 233 233 233 232 231 230 229 228 226 224 223 222 222 222 222 222 223 224 225 226 227 229 230 233 235 238 240 242 244 247 249 252 256 261 266 270 275 279 282 284 285 286 286 286 286 286 286 287 286 286 286 287 288 288 289 288 288 288 288 287 287 287 287 287 288
237 236 234 233 233 232 232 232 231 230 228 226 224 223 222 221 221 222 223 223 224 225 227 227 228 230 232 234 237 239 241 243 245 247 251 255 260 265 269 274 277 280 282 284 285 286 286 287 287 287 287 288 287 287 287 287 288 288 288 288 288 287 287 286 286 286 286 287 287
237 235 234 233 232 232 232 231 229 228 226 225 223 222 221 221 222 223 224 224 225 225 226 227 228 230 233 235 237 239 241 243 246 249 254 259 264 269 273 276 278 281 283 284 286 286 287 287 288 288 288 288 288 288 287 287 288 288 287 287 286 286 286 285 285 285 285 286 286
237 235 233 232 232 231 231 229 228 226 225 224 223 222 221 221 222 223 223 224 224 225 226 227 229 232 234 236 238 240 242 245 249 253 258 263 268 272 275 277 279 281 283 285 286 287 288 288 288 288 289 289 289 288 288 288 288 287 287 286 285 285 285 284 284 284 284 284 284
236 234 232 232 231 230 229 228 227 225 224 222 222 222 221 221 221 221 222 223 224 225 227 229 232 234 236 238 240 242 245 248 253 257 262 266 270 274 276 278 280 282 284 286 287 288 288 288 288 289 290 290 290 289 289 289 288 287 286 286 285 285 284 284 284 284 284 283 283
236 233 231 230 229 228 227 226 225 224 222 221 221 221 221 221 221 222 223 223 224 226 228 231 233 236 238 240 242 245 248 253 257 261 265 269 273 276 278 279 280 282 284 286 287 288 288 288 289 290 290 291 290 290 290 290 289 288 286 286 285 285 285 285 285 284 283 283 283
236 233 230 229 228 226 225 224 223 222 221 220 220 220 220 220 221 223 224 224 224 226 228 231 233 235 238 240 243 246 250 255 260 265 269 272 275 277 279 280 281 283 284 286 288 289 289 290 290 290 291 291 290 290 290 290 288 287 286 286 285 285 285 285 285 284 283 283 282
237 234 230 228 227 225 224 223 222 221 220 220 220 220 220 220 221 222 222 223 224 226 228 231 234 235 238 241 245 249 254 259 264 268 271 274 276 278 280 281 283 284 286 288 289 291 291 291 291 291 291 291 290 290 290 289 288 287 286 286 285 285 285 286 285 285 284 283 283
238 234 231 228 226 225 224 223 222 221 220 221 220 220 220 220 220 220 221 223 224 226 230 232 235 237 240 244 249 254 258 262 266 269 272 274 276 278 281 282 284 285 288 290 292 293 293 293 291 290 290 290 290 290 290 288 287 286 286 286 285 286 286 286 286 285 284 283 284
238 234 231 228 226 225 224 223 222 222 221 221 220 219 219 218 218 219 221 223 226 228 231 234 237 240 244 249 254 258 261 264 267 270 272 275 277 279 281 283 285 287 290 292 294 294 294 293 291 290 290 289 289 289 289 287 286 285 285 285 286 287 287 287 286 285 284 285 286
238 234 231 228 227 226 225 224 223 223 222 220 218 217 217 217 218 219 222 224 227 230 233 236 240 244 249 253 257 260 263 266 268 270 273 276 278 279 281 283 285 288 290 292 294 294 294 294 293 292 290 289 289 288 287 286 285 284 284 284 286 288 289 289 287 285 285 286 287
238 234 230 228 227 226 225 224 224 223 221 219 217 217 217 217 218 219 221 224 227 230 234 238 243 247 251 255 259 263 266 268 270 272 274 277 279 280 281 283 286 288 290 292 293 295 296 295 294 292 289 288 288 287 286 284 283 283 283 285 286 288 289 289 288 287 286 286 288